TimeCDT,TemperatureF,Dew PointF,Humidity,Sea Level PressureIn,VisibilityMPH,Wind Direction,Wind SpeedMPH,Gust SpeedMPH,PrecipitationIn,Events,Conditions,WindDirDegrees,DateUTC
12:53 AM,39.9,30.9,70,29.63,10.0,West,12.7,-,N/A,,Partly Cloudy,270,2012-10-09 05:53:00
1:53 AM,39.0,30.9,73,29.64,10.0,West,12.7,-,N/A,,Scattered Clouds,270,2012-10-09 06:53:00
2:53 AM,39.0,30.9,73,29.64,10.0,West,11.5,-,N/A,,Mostly Cloudy,270,2012-10-09 07:53:00
3:53 AM,39.9,32.0,73,29.64,10.0,West,10.4,-,N/A,,Overcast,270,2012-10-09 08:53:00
4:53 AM,39.0,34.0,82,29.64,10.0,West,9.2,-,0.00,Rain,Light Rain,280,2012-10-09 09:53:00
5:53 AM,37.9,34.0,86,29.65,10.0,WNW,8.1,-,0.00,,Overcast,290,2012-10-09 10:53:00
6:13 AM,37.4,33.8,87,29.63,10.0,WNW,12.7,-,N/A,,Mostly Cloudy,290,2012-10-09 11:13:00
6:53 AM,37.9,35.1,89,29.67,10.0,WNW,13.8,-,0.00,,Overcast,300,2012-10-09 11:53:00
7:29 AM,35.6,32.0,87,29.68,10.0,NNW,17.3,26.5,0.00,Rain,Light Rain,330,2012-10-09 12:29:00
7:53 AM,34.0,32.0,92,29.72,10.0,NNW,20.7,25.3,0.00,Snow,Light Snow,330,2012-10-09 12:53:00
8:53 AM,36.0,33.1,89,29.76,10.0,North,23.0,31.1,0.00,,Overcast,350,2012-10-09 13:53:00
9:20 AM,35.6,32.0,87,29.76,10.0,North,19.6,33.4,0.00,,Overcast,350,2012-10-09 14:20:00
9:53 AM,37.0,33.1,86,29.81,10.0,NNW,23.0,31.1,0.00,,Overcast,340,2012-10-09 14:53:00
10:23 AM,37.4,33.8,87,29.79,10.0,NNW,20.7,31.1,N/A,,Overcast,340,2012-10-09 15:23:00
10:53 AM,37.9,33.1,83,29.84,10.0,NNW,20.7,29.9,N/A,,Overcast,340,2012-10-09 15:53:00
11:53 AM,39.9,32.0,73,29.86,10.0,NNW,20.7,27.6,N/A,,Overcast,340,2012-10-09 16:53:00
12:11 PM,37.4,32.0,81,29.85,7.0,North,19.6,-,0.00,Rain,Light Rain,350,2012-10-09 17:11:00
12:53 PM,39.0,32.0,76,29.89,10.0,NNW,18.4,-,0.02,,Overcast,340,2012-10-09 17:53:00
1:53 PM,39.0,30.0,70,29.90,10.0,NNW,23.0,-,N/A,,Overcast,330,2012-10-09 18:53:00
2:53 PM,37.9,30.9,76,29.91,10.0,NNW,20.7,-,0.00,,Overcast,330,2012-10-09 19:53:00
3:53 PM,42.1,30.0,62,29.92,10.0,NW,18.4,24.2,N/A,,Overcast,320,2012-10-09 20:53:00
4:53 PM,41.0,28.0,60,29.94,10.0,NW,16.1,20.7,N/A,,Mostly Cloudy,320,2012-10-09 21:53:00
5:53 PM,39.0,28.9,67,29.96,10.0,NW,6.9,-,N/A,,Mostly Cloudy,320,2012-10-09 22:53:00
6:53 PM,37.9,28.9,70,29.98,10.0,NW,8.1,-,N/A,,Mostly Cloudy,310,2012-10-09 23:53:00
7:53 PM,36.0,28.9,76,29.99,10.0,WNW,8.1,-,N/A,,Mostly Cloudy,300,2012-10-10 00:53:00
8:53 PM,33.1,28.9,85,30.00,10.0,NW,3.5,-,N/A,,Mostly Cloudy,320,2012-10-10 01:53:00
9:53 PM,34.0,28.9,82,30.00,10.0,NW,5.8,-,N/A,,Overcast,310,2012-10-10 02:53:00
10:53 PM,33.1,28.9,85,30.01,10.0,West,5.8,-,N/A,,Overcast,280,2012-10-10 03:53:00
11:53 PM,33.1,28.9,85,30.01,10.0,West,5.8,-,N/A,,Scattered Clouds,270,2012-10-10 04:53:00